Vertical_Velocity
-1 -1 -1 -2 -10 -4 -5 -3 -6 -3 2 -10 0 -0 3 2 -0 -5 -1 -2 0 1 0 0 1 2 1 2 5 -1 -2 -0 -1 -8 -1 -1 -1 -2 -3 -3 -2 -1 -1 -20
-2 -1 -4 -3 -3 -6 -8 -4 -2 -1 1 -4 -1 -4 -1 0 -4 0 -2 -0 0 -0 1 -0 -1 -0 3 -3 -1 4 -2 -4 -2 -14 -5 -1 0 -0 -1 -1 -1 -3 1 -17
-5 -5 -6 -4 -4 -9 -5 -2 -7 -5 -11 1 -1 -0 -0 -2 -1 0 1 1 -3 -2 -2 -1 -2 -2 -3 -0 2 -0 3 0 -3 -5 -6 -1 -1 -1 -0 -0 3 -3 -12 -13
-2 -7 -4 -3 -6 -9 -6 -3 1 2 -2 -5 -1 0 1 -0 -3 0 1 2 -1 2 1 -1 0 -1 -5 -7 -5 -2 -2 2 2 -2 -0 1 1 1 -1 4 -7 7 -20 3
-4 -0 -8 -9 -3 -5 -25 -4 -3 -1 -0 0 -1 -1 1 1 -3 3 -0 -2 -0 1 0 0 -1 4 0 -3 -5 -1 -2 -4 1 -8 -2 2 1 -2 0 -0 -3 1 2 -13
-1 -3 -1 -3 -6 -9 -5 -1 -1 -2 0 -2 -0 1 1 -0 1 -3 3 3 2 1 -4 1 -5 -3 -3 -5 6 -1 2 1 1 -7 0 -0 2 -9 -3 -2 -0 0 3 1
1 -2 -3 -1 -2 -7 -1 -3 -3 -5 -1 1 1 -0 3 -0 -1 0 -8 4 3 -6 0 -6 -5 9 4 8 -7 3 0 1 1 -2 -2 -1 -15 -0 -2 -3 3 -1 -3 -1
-3 -2 3 -1 1 -1 1 2 -2 -3 -1 0 -5 0 0 -0 -5 1 -1 -11 2 7 -1 -0 -3 -5 -5 -2 -1 1 2 1 -1 3 -0 -12 -18 -3 -2 0 5 4 3 -2
6 -1 1 -6 -4 -2 -1 -2 5 1 1 -6 -1 -0 1 -0 -0 -1 -6 -6 -3 8 2 2 1 -1 1 -4 -9 -1 0 1 3 3 6 -0 -5 -2 0 1 3 2 3 0
4 0 -1 2 0 -3 -3 -2 4 7 6 -11 2 -3 1 3 2 1 -2 -2 -3 4 0 1 1 -2 -2 -1 0 -1 -1 -1 2 -2 -1 -7 0 1 -2 10 4 1 2 -1
1 -0 -2 -6 -1 8 17 -5 3 16 3 -17 8 -4 3 -2 4 3 -8 -1 3 1 3 2 -3 1 -5 3 -3 0 7 4 -0 2 3 -11 -3 -11 -6 -1 -16 -3 -2 -1
1 -5 -2 3 5 2 12 -8 -0 -1 9 -10 10 -19 18 -2 -6 19 3 -7 0 -2 1 -1 -0 -0 1 2 -7 -0 3 -9 -4 5 -16 -12 -19 5 -2 12 0 -5 -2 -2
3 -6 7 6 1 2 8 -8 1 4 1 -19 13 -17 -4 5 8 15 13 -6 6 -3 -6 -1 -3 4 4 1 -8 4 -4 0 5 22 -34 -7 -8 -20 -6 3 -0 -7 5 -2
-2 -5 4 8 -2 -3 4 -4 8 9 4 10 -38 -3 -16 -4 4 8 10 -14 19 11 17 4 1 4 4 -5 -6 11 -10 10 -4 -14 -11 -4 -9 -4 -7 -12 3 0 4 -2
-2 -1 2 4 0 -1 5 -11 5 15 10 1 -12 -19 2 1 5 2 11 7 9 5 8 4 -4 0 12 -4 9 -1 -3 -11 6 -19 -14 12 -15 -12 5 2 -6 1 3 -7
-6 -1 2 -1 1 1 -2 -21 -2 -1 0 3 -1 1 -33 -8 9 2 7 4 5 4 -3 -5 -2 -12 17 4 -1 -30 -2 1 6 -16 2 4 -10 3 -9 8 -4 -4 3 -0
-2 2 -0 -4 3 8 12 -13 11 10 6 15 -2 -3 -4 -5 -0 -3 -5 5 -8 8 -3 2 4 3 9 3 2 -20 3 -3 -3 -2 7 -11 0 -13 -3 9 -3 -2 -3 -2
-2 -3 -3 -3 -0 -0 -6 12 2 -0 -0 5 1 -8 -5 -4 -7 -4 3 2 5 1 -6 2 3 4 2 3 2 -3 -2 -4 -1 1 3 3 -4 -2 -7 5 3 -0 -3 -6
-2 -4 -6 -10 -3 -0 0 3 6 14 10 0 3 0 -3 4 -5 -4 -6 4 0 4 0 -1 4 0 2 7 3 -1 1 6 -5 -2 -1 -2 -0 -2 -2 5 1 5 -1 -5
-3 -10 -6 -2 -3 1 -1 -5 0 -0 7 9 1 1 -2 2 0 -4 2 3 -1 -0 -7 2 2 2 8 6 6 4 0 -1 1 1 -15 -3 -7 3 -3 -0 -0 5 -0 1
-7 -3 -4 -2 3 -1 3 -2 -3 -0 -2 1 1 4 -0 -4 0 -2 2 -2 -2 2 -4 3 -0 -0 0 -3 -4 0 -0 2 1 5 1 -1 1 -3 -1 -3 -1 1 2 1
0 4 4 -1 1 -1 -3 -2 -4 -1 -4 -2 -2 -2 -1 -7 3 2 -5 -0 1 -2 1 -0 -0 0 -3 -1 -5 -6 1 4 -0 8 3 -4 0 -1 -3 -0 -3 1 3 1
-3 2 0 1 -1 -7 -1 -2 -6 -1 -1 -0 -1 -8 -1 -1 3 -0 2 3 -3 -2 -4 2 2 -0 -5 1 1 -6 0 -1 -1 -3 8 5 1 1 -2 -4 10 5 0 1
-2 1 -3 -2 -4 -2 -3 -2 -2 -0 2 3 0 -3 1 2 0 -0 4 -6 -2 -3 -3 -0 -1 1 -1 -1 2 3 -4 1 5 9 10 1 -0 4 5 8 10 6 -0 5
1 1 -4 -1 -3 -1 1 1 2 4 3 -1 -2 -0 3 -1 2 1 -0 -5 -0 2 3 0 -0 -2 3 -1 -0 3 3 3 3 6 2 11 20 11 7 7 6 5 1 4
1 1 -0 1 1 -4 0 1 -2 -3 0 1 3 -0 1 -1 0 0 2 -2 2 2 0 3 -3 -1 2 0 3 6 7 8 8 7 9 7 -2 3 15 10 2 4 3 5
0 -2 -0 1 3 3 0 2 4 -0 1 -1 1 1 -2 -1 -1 -1 0 2 1 1 -0 2 2 2 -1 2 3 2 0 2 2 7 2 7 9 3 -1 -2 9 4 4 -1
Height
1559 1555 1550 1544 1537 1530 1523 1519 1521 1520 1515 1518 1525 1529 1529 1528 1524 1521 1519 1517 1518 1517 1513 1505 1496 1499 1503 1505 1499 1500 1492 1492 1491 1475 1466 1467 1468 1470 1473 1474 1471 1479 1476 1440
1560 1556 1550 1546 1539 1532 1526 1523 1524 1523 1517 1531 1534 1532 1529 1528 1526 1526 1525 1524 1523 1522 1521 1515 1507 1505 1504 1504 1505 1507 1499 1494 1495 1474 1468 1467 1467 1468 1469 1473 1476 1471 1468 1429
1561 1556 1552 1547 1541 1536 1531 1529 1532 1529 1528 1537 1537 1538 1536 1532 1530 1529 1529 1529 1526 1527 1525 1519 1516 1512 1505 1505 1504 1502 1498 1495 1488 1482 1473 1480 1475 1468 1468 1469 1472 1460 1442 1428
1562 1558 1553 1548 1543 1538 1535 1535 1545 1547 1547 1542 1542 1540 1539 1536 1535 1531 1530 1530 1534 1535 1531 1523 1516 1515 1514 1508 1504 1499 1500 1492 1488 1482 1480 1479 1472 1468 1468 1466 1458 1461 1435 1436
1564 1559 1553 1550 1546 1542 1538 1544 1548 1547 1547 1547 1544 1541 1543 1541 1540 1538 1533 1533 1534 1534 1534 1527 1523 1521 1520 1514 1505 1503 1501 1495 1490 1473 1474 1470 1460 1452 1454 1451 1447 1446 1445 1430
1566 1562 1557 1553 1549 1546 1546 1549 1550 1549 1549 1548 1546 1546 1545 1543 1543 1536 1534 1534 1534 1529 1525 1522 1520 1516 1511 1506 1503 1505 1505 1498 1492 1474 1466 1464 1455 1435 1436 1434 1440 1439 1439 1438
1565 1562 1559 1556 1553 1553 1553 1550 1549 1549 1549 1548 1547 1545 1546 1543 1542 1541 1534 1533 1533 1526 1521 1514 1505 1497 1494 1493 1492 1498 1498 1497 1496 1483 1473 1476 1431 1429 1428 1437 1446 1446 1443 1439
1566 1563 1559 1556 1556 1553 1554 1553 1551 1550 1550 1547 1544 1543 1542 1540 1538 1537 1533 1529 1526 1523 1519 1512 1501 1494 1488 1484 1485 1486 1491 1497 1491 1482 1471 1452 1434 1431 1441 1444 1449 1447 1447 1440
1564 1561 1557 1555 1556 1555 1552 1554 1552 1549 1546 1543 1541 1541 1539 1538 1535 1532 1528 1525 1524 1522 1518 1515 1511 1503 1499 1495 1489 1484 1486 1491 1489 1477 1469 1453 1430 1437 1435 1434 1432 1443 1443 1438
1561 1560 1557 1555 1552 1551 1551 1550 1550 1546 1541 1536 1537 1537 1536 1535 1533 1529 1525 1522 1520 1519 1517 1515 1509 1504 1497 1498 1492 1491 1489 1486 1481 1472 1463 1443 1437 1431 1427 1427 1437 1434 1436 1436
1558 1556 1552 1553 1551 1548 1547 1547 1546 1544 1537 1531 1530 1531 1529 1529 1528 1525 1521 1521 1517 1517 1516 1512 1506 1507 1495 1495 1488 1494 1491 1485 1483 1477 1469 1456 1435 1434 1444 1436 1431 1431 1429 1429
1555 1554 1551 1548 1547 1545 1541 1541 1541 1538 1534 1527 1526 1522 1520 1519 1516 1519 1516 1515 1513 1510 1509 1509 1507 1497 1495 1491 1481 1483 1479 1476 1471 1469 1453 1433 1431 1434 1427 1433 1430 1426 1423 1420
1554 1551 1549 1543 1542 1541 1539 1536 1534 1532 1526 1518 1514 1509 1510 1508 1509 1510 1509 1504 1503 1503 1502 1498 1493 1490 1486 1482 1469 1469 1463 1466 1464 1462 1409 1436 1436 1429 1425 1423 1423 1418 1415 1410
1550 1549 1546 1541 1537 1536 1534 1531 1529 1528 1525 1516 1504 1504 1500 1500 1498 1497 1497 1494 1494 1494 1495 1489 1483 1481 1477 1469 1461 1459 1454 1455 1447 1432 1424 1425 1416 1419 1418 1415 1415 1412 1407 1406
1545 1544 1541 1536 1532 1531 1528 1524 1519 1518 1522 1513 1502 1498 1487 1488 1486 1486 1486 1486 1485 1484 1483 1478 1470 1467 1469 1457 1457 1438 1441 1438 1438 1417 1417 1416 1408 1406 1407 1407 1403 1402 1402 1398
1540 1539 1535 1531 1528 1526 1522 1516 1513 1511 1511 1511 1502 1489 1483 1479 1479 1478 1477 1475 1476 1476 1472 1460 1453 1459 1460 1449 1436 1412 1425 1427 1423 1411 1411 1406 1397 1397 1393 1392 1390 1390 1390 1389
1535 1533 1529 1525 1522 1521 1520 1515 1512 1510 1508 1502 1493 1486 1480 1478 1475 1472 1470 1467 1464 1462 1457 1445 1444 1447 1448 1438 1428 1416 1421 1419 1413 1407 1402 1393 1389 1384 1378 1378 1378 1378 1378 1378
1530 1526 1522 1518 1515 1511 1507 1505 1504 1503 1503 1502 1496 1487 1481 1477 1472 1467 1464 1457 1453 1446 1442 1438 1436 1436 1434 1431 1433 1427 1421 1413 1404 1399 1397 1390 1381 1374 1368 1367 1368 1367 1368 1368
1524 1520 1515 1510 1507 1504 1503 1501 1498 1497 1501 1495 1491 1488 1483 1477 1473 1467 1456 1450 1446 1437 1434 1430 1432 1426 1426 1436 1431 1423 1416 1410 1398 1388 1385 1379 1371 1365 1361 1359 1358 1357 1357 1359
1519 1515 1512 1506 1505 1502 1500 1492 1490 1489 1490 1489 1485 1482 1482 1480 1475 1467 1461 1452 1446 1440 1426 1424 1421 1423 1432 1429 1424 1416 1408 1401 1394 1383 1368 1368 1361 1358 1353 1350 1351 1350 1349 1350
1517 1514 1509 1505 1501 1497 1494 1492 1491 1490 1489 1485 1483 1479 1482 1478 1475 1471 1463 1457 1445 1436 1425 1422 1417 1429 1429 1425 1417 1409 1401 1392 1383 1375 1365 1358 1353 1348 1345 1340 1344 1343 1343 1343
1515 1514 1507 1501 1498 1496 1497 1498 1493 1492 1491 1484 1482 1482 1480 1475 1471 1468 1460 1454 1443 1434 1425 1420 1428 1430 1430 1421 1411 1401 1392 1381 1368 1357 1346 1339 1337 1337 1337 1335 1337 1337 1337 1337
1511 1508 1505 1502 1500 1504 1501 1509 1498 1496 1485 1483 1481 1481 1479 1474 1471 1467 1461 1453 1441 1433 1433 1436 1442 1439 1429 1419 1407 1395 1385 1372 1356 1338 1318 1310 1320 1326 1329 1330 1333 1334 1334 1335
1508 1507 1506 1504 1507 1502 1496 1494 1490 1486 1483 1482 1480 1479 1478 1472 1470 1463 1458 1446 1441 1446 1454 1453 1446 1440 1430 1419 1409 1396 1383 1371 1355 1336 1318 1311 1318 1323 1328 1331 1334 1334 1334 1336
1507 1505 1505 1501 1493 1491 1489 1488 1485 1483 1481 1480 1479 1476 1476 1471 1467 1459 1453 1451 1456 1456 1460 1457 1452 1444 1434 1422 1411 1401 1389 1377 1363 1351 1337 1332 1331 1330 1332 1336 1338 1340 1342 1344
1503 1500 1497 1494 1493 1487 1486 1485 1483 1481 1479 1478 1477 1476 1473 1466 1461 1455 1459 1461 1464 1466 1466 1461 1454 1445 1436 1427 1417 1407 1397 1387 1377 1367 1359 1352 1348 1346 1346 1344 1346 1349 1352 1355
1499 1495 1494 1493 1490 1488 1486 1484 1481 1480 1479 1477 1475 1474 1466 1464 1461 1464 1467 1472 1473 1470 1466 1462 1456 1449 1441 1432 1424 1415 1407 1398 1389 1381 1374 1369 1368 1366 1363 1359 1364 1365 1366 1366